Regional Weather Roundup
Issued by NWS

Home | Current Version | Previous Version | Graphics & Text | Print | Product List | Glossary Off
Versions: 1 2 3 4 5 6 7 8 9 10 11 12 13 14 15 16 17 18 19 20 21 22 23 24 25 26 27 28 29 30 31 32 33 34 35 36 37 38 39 40 41 42 43 44 45 46 47 48 49 50

000
ASUS43 KMPX 261410
RWRMN
WEATHER ROUNDUP FOR MINNESOTA
NATIONAL WEATHER SERVICE TWIN CITIES/CHANHASSEN MN
900 AM CDT THU MAY 26 2016


NOTE: "FAIR" INDICATES FEW OR NO CLOUDS BELOW 12,000 FEET WITH NO
SIGNIFICANT WEATHER AND/OR OBSTRUCTIONS TO VISIBILITY. N/A MEANS
CURRENT SKY AND/OR WEATHER CONDITIONS ARE NOT AVAILABLE.

MNZ060>063-068>070-261500-
   Twin Cities Metro

CITY           SKY/WX    TMP DP  RH WIND       PRES   REMARKS
TWIN CITIES    CLOUDY    65  57  75 SW8       29.81S
ST PAUL        PTSUNNY   66  58  75 CALM      29.81S
CRYSTAL        MOSUNNY   66  55  67 SW7       29.79F
BLAINE         MOSUNNY   66  59  77 SW7       29.81R
EDEN PRAIRIE   CLOUDY    65  57  75 SW9       29.80S
SOUTH ST PAUL  CLOUDY    65  58  76 SW7       29.81F
LAKE ELMO      FAIR      64  59  82 SW8       29.82F
$$
MNZ001>005-007-008-013>017-022>024-027-028-261500-
   Northwest Minnesota

CITY           SKY/WX    TMP DP  RH WIND       PRES   REMARKS
BEMIDJI        CLOUDY    57  56  94 SW6       29.76S
HALLOCK        CLOUDY    59  55  88 SW14      29.68S
ROSEAU         CLOUDY    61  55  82 SW15      29.70S
WARROAD        CLOUDY    59  55  88 S5        29.71S
THIEF RVR FALL CLOUDY    61  55  82 SW9       29.74S
CROOKSTON      PTSUNNY   61  57  88 W8        29.74R
FOSSTON        PTSUNNY   59  55  88 S8        29.76S
DETROIT LAKES  SUNNY     61  54  77 SW7       29.78R
MOORHEAD       PTSUNNY   57  55  94 SW6       29.77S
PARK RAPIDS    PTSUNNY   61  55  81 VRB3      29.77S
MAHNOMEN       FAIR      58  55  87 SW9       29.75F
$$
MNZ006-009>011-018-025>026-261500-
   North Central Minnesota

CITY           SKY/WX    TMP DP  RH WIND       PRES   REMARKS
BAUDETTE       CLOUDY    58  55  90 S8        29.73S
FLAG ISLAND    LGT RAIN  55  55 100 SE17      29.69F
INTL FALLS     CLOUDY    56  55  97 VRB5      29.76S FOG
WASKISH        CLOUDY    59  57  94 SW7       29.75S
BIG FORK       CLOUDY    57  55  94 S6        29.77S
LONGVILLE      CLOUDY    59  57  94 SE6       29.76F
GRAND RAPIDS   CLOUDY    53  52  96 E5        29.80S FOG
CRANE LAKE     CLOUDY    55  54  94 S3        29.80R
ORR            CLOUDY    55  52  88 CALM      29.76S FOG
COOK           CLOUDY    57  54  88 S3        29.79S
WALKER         CLOUDY    60  56  88 SW6       29.76S
$$
MNZ012-019>021-037-261500-
   Northeast Minnesota

CITY           SKY/WX    TMP DP  RH WIND       PRES   REMARKS
DULUTH         FOG       49  48  97 SE5       29.81R VSB 1/8
ELY            CLOUDY    57  54  88 SE6       29.79S
HIBBING        FOG       51  51 100 SE5       29.80R VSB 3/4
EVELETH        CLOUDY    54  54 100 S5        29.81R FOG
DULUTH HARBOR  FOG       45  43  93 NE7       29.83S VSB 1/2
TWO HARBORS    HAZE      54  48  82 E3        29.80R VSB 1/4
SILVER BAY     CLOUDY    54  52  94 NE3       29.81R VSB 1
GRAND MARAIS     N/A     45  41  86 NE6       29.83R
G MARAIS ARPRT CLOUDY    55  52  88 E3        29.84R FOG
$$
MNZ029>031-032-039>041-046>048-054>057-064-261500-
   West Central Minnesota

CITY           SKY/WX    TMP DP  RH WIND       PRES   REMARKS
FERGUS FALLS   PTSUNNY   61  57  88 W10       29.77R
WHEATON        SUNNY     64  54  68 W10       29.81F
MORRIS         SUNNY     64  55  72 W9        29.80S
ALEXANDRIA     SUNNY     63  53  70 W9        29.80F
ELBOW LAKE     PTSUNNY   60  55  83 NW8       29.81S
WADENA         MOSUNNY   61  55  82 W8        29.77F
GLENWOOD       SUNNY     63  54  72 W7        29.81S
APPLETON       SUNNY     64  55  72 W10       29.82R
BENSON         SUNNY     64  54  68 NW9       29.81S
ORTONVILLE     SUNNY     63  52  67 W6        29.82R
MADISON        SUNNY     64  52  63 W10       29.83R
WILLMAR        FAIR      66  55  68 W9        29.82S
$$
MNZ033>034-036-042>043-049>051-058-059-261500-
   Central Minnesota

CITY           SKY/WX    TMP DP  RH WIND       PRES   REMARKS
ST CLOUD       MOSUNNY   65  58  78 SW6       29.79R
SAUK CENTRE    FAIR      62  56  82 W7        29.80S
PAYNESVILLE    SUNNY     64  57  78 W13       29.81S
AITKIN         CLOUDY    61  55  82 E3        29.76F HAZE
PINE RIVER     CLOUDY    61  57  88 SW6       29.80S
BRAINERD       MOSUNNY   64  57  78 SW7       29.78S
STAPLES        CLOUDY    57  55  94 SW8       29.79R FOG
LONG PRAIRIE   FAIR      61  55  82 W7        29.80S
LITTLE FALLS   MOSUNNY   61  54  77 W7        29.79R
LITCHFIELD     SUNNY     66  57  72 W8        29.81S
BUFFALO        MOSUNNY   65  57  75 S7        29.81S
MAPLE LAKE     MOSUNNY   67  61  81 CALM      29.81S
HUTCHINSON     CLOUDY    66  59  76 W10       29.82S
$$
MNZ037-044-045-052-053-261500-
   East Central Minnesota

CITY           SKY/WX    TMP DP  RH WIND       PRES   REMARKS
PRINCETON      CLOUDY    66  63  88 SW3       29.79F
MORA           CLOUDY    59  59 100 SW5       29.81R FOG
CAMBRIDGE      CLOUDY    66  55  68 S7        29.78S
RUSH CITY      PTSUNNY   62  61  97 S3        29.80R
MOOSE LAKE     FOG       46  46 100 NE5       29.79S VSB 1
HINCKLEY       CLOUDY    57  57 100 CALM      29.79S
CLOQUET        FOG       48  46  93 E5        29.81R VSB 1/2
MCGREGOR       CLOUDY    52  52 100 SE3       29.80S VSB 1/2
$$
MNZ071>073-080-081-089-090-097-098-261500-
   Southwest Minnesota

CITY           SKY/WX    TMP DP  RH WIND       PRES   REMARKS
MONTEVIDEO     SUNNY     68  54  60 NW9       29.84R
GRANITE FALLS  SUNNY     69  54  59 W13       29.85R
CANBY          SUNNY     67  55  65 NW8       29.86R
MARSHALL       SUNNY     65  50  58 NW12      29.84F
REDWOOD FALLS  SUNNY     66  54  65 W10       29.82R
OLIVIA         SUNNY     64  54  68 W10G18    29.81S
PIPESTONE      SUNNY     64  50  59 NW10      29.87S
WINDOM         SUNNY     66  55  68 CALM      29.86R
WORTHINGTON    SUNNY     64  51  62 NW12      29.88R
JACKSON        SUNNY     64  55  72 W8        29.88R
TRACY          SUNNY     66  52  59 NW9       29.86S
SLAYTON        SUNNY     65  49  57 W13       29.87F
$$
MNZ065>067-074>077-082>085-091>093-261500-
   South Central Minnesota

CITY           SKY/WX    TMP DP  RH WIND       PRES   REMARKS
MANKATO        SUNNY     64  57  77 SW13      29.83F
NEW ULM        SUNNY     66  57  72 W15       29.83R
ST JAMES       SUNNY     63  54  72 W9        29.85S
FAIRMONT       SUNNY     64  57  77 SW12      29.86R
GLENCOE        SUNNY     66  59  77 SW7       29.81R
FARIBAULT      CLOUDY    63  61  94 SW12      29.83S
OWATONNA       SUNNY     66  57  72 SW15      29.83F
WASECA         SUNNY     63  57  82 SW12      29.85F
ALBERT LEA     SUNNY     64  59  82 CALM      29.84F
$$
MNZ078>079-086>088-094>096-261500-
   Southeast Minnesota

CITY           SKY/WX    TMP DP  RH WIND       PRES   REMARKS
ROCHESTER      MOSUNNY   63  59  87 SW10      29.85F
RED WING       CLOUDY    64  59  82 W5        29.81F
STANTON        CLOUDY    67  58  73 SW13      29.81F
DODGE CENTER   SUNNY     63  63 100 W12       29.84S
WINONA         PTSUNNY   61  57  88 SW5       29.84R
AUSTIN         SUNNY     63  57  82 SW6       29.83F
PRESTON        CLOUDY    60  57  90 SW6       29.84F
$$
ABBREVIATIONS USED IN REMARKS
   TC - TEMPERATURES IN CELSIUS
  WCI - WIND CHILL INDEX
   HX - HEAT INDEX
  VSB - VISIBILITY
$$




USA.gov is the U.S. government's official web portal to all federal, state and local government web resources and services.